Location: Dattensoll
(49.9928°N, 9.8954°E)
Time: 00:46:53
(UTC+00:00)

Cosmos 44 - Pass Details

Date: 19 May 2025
Orbit: 588 x 763 km, 65.1° (Epoch: 15 June)

Event Time Altitude Azimuth Distance (km) Brightness Sun altitude
Rises 21:16:14 0° 314° (NW) 2,910 8.0 -15.1°
Reaches altitude 10° 21:18:38 10° 305° (NW) 2,024 6.7 -15.3°
Maximum altitude 21:22:44 33° 241° (WSW) 1,096 4.3 -15.6°
Enters shadow 21:25:16 20° 191° (S) 1,541 4.6 -15.8°
